FW6629 Weather Reports


Display with metric or nautical units.
time (UTC)temp
F
wind
direction
speed
MPH
gust
MPH
rain 1hr
in
rain 24hr
in
rain mn
in
humidity
%
barometer
mb
20260906205525 96 356 1.0 4.0 0.00 0.00 0.00 51 1009.6
20260906205031 97 23 1.0 4.0 0.00 0.00 0.00 49 1009.6
20260906204546 98 30 1.0 5.0 0.00 0.00 0.00 46 1009.6
20260906204028 99 21 2.0 6.0 0.00 0.00 0.00 44 1009.7
20260906203526 98 50 3.0 6.0 0.00 0.00 0.00 42 1009.7
20260906203053 99 334 2.0 8.0 0.00 0.00 0.00 39 1009.8
20260906202524 99 275 2.0 8.0 0.00 0.00 0.00 41 1009.9
20260906202025 98 317 1.0 6.0 0.00 0.00 0.00 43 1009.9
20260906201551 98 11 2.0 7.0 0.00 0.00 0.00 45 1010.0
20260906201026 98 353 3.0 9.0 0.00 0.00 0.00 45 1010.2
20260906200525 97 0 2.0 9.0 0.00 0.00 0.00 46 1010.3
20260906200043 97 281 2.0 7.0 0.00 0.00 0.00 47 1010.4
20260906195524 95 152 1.0 4.0 0.00 0.00 0.00 46 1010.6
20260906195023 95 107 2.0 6.0 0.00 0.00 0.00 48 1010.6
20260906194550 96 0 2.0 6.0 0.00 0.00 0.00 47 1010.8
20260906194024 97 67 1.0 4.0 0.00 0.00 0.00 45 1010.8
20260906193525 97 353 1.0 6.0 0.00 0.00 0.00 45 1010.9
20260906193049 98 23 1.0 6.0 0.00 0.00 0.00 46 1010.9
20260906192525 98 71 2.0 9.0 0.00 0.00 0.00 44 1011.1
20260906192025 98 356 5.0 9.0 0.00 0.00 0.00 45 1011.1
20260906191558 98 35 2.0 7.0 0.00 0.00 0.00 44 1011.2
20260906191028 98 27 2.0 12.0 0.00 0.00 0.00 45 1011.2
20260906190525 98 44 1.0 12.0 0.00 0.00 0.00 45 1011.3
20260906190043 98 79 1.0 6.0 0.00 0.00 0.00 45 1011.4
20260906185524 98 327 1.0 5.0 0.00 0.00 0.00 43 1011.5
20260906185024 97 71 1.0 5.0 0.00 0.00 0.00 44 1011.6
20260906184558 97 95 1.0 6.0 0.00 0.00 0.00 45 1011.8
20260906184024 98 79 1.0 9.0 0.00 0.00 0.00 45 1011.8
20260906183525 98 102 2.0 9.0 0.00 0.00 0.00 44 1011.8
20260906183048 97 58 2.0 7.0 0.00 0.00 0.00 45 1011.9
20260906182526 97 23 2.0 10.0 0.00 0.00 0.00 46 1011.9
20260906182025 97 53 1.0 10.0 0.00 0.00 0.00 46 1011.9
20260906181551 97 8 4.0 10.0 0.00 0.00 0.00 45 1012.0
20260906181025 97 315 2.0 7.0 0.00 0.00 0.00 45 1012.1
20260906180526 96 83 3.0 6.0 0.00 0.00 0.00 47 1012.1
20260906180110 96 17 2.0 7.0 0.00 0.00 0.00 48 1012.2
20260906175530 95 92 1.0 7.0 0.00 0.00 0.00 48 1012.3
20260906175025 95 54 3.0 8.0 0.00 0.00 0.00 47 1012.3
20260906174549 96 11 2.0 8.0 0.00 0.00 0.00 48 1012.5
20260906174025 96 92 2.0 8.0 0.00 0.00 0.00 47 1012.5
20260906173525 95 55 2.0 7.0 0.00 0.00 0.00 47 1012.5
20260906173049 95 19 1.0 8.0 0.00 0.00 0.00 47 1012.5
20260906172525 95 74 1.0 8.0 0.00 0.00 0.00 50 1012.5
20260906172024 94 71 2.0 8.0 0.00 0.00 0.00 49 1012.4
20260906171546 94 334 2.0 8.0 0.00 0.00 0.00 50 1012.5
20260906171027 93 358 2.0 7.0 0.00 0.00 0.00 51 1012.5
20260906170526 94 17 2.0 7.0 0.00 0.00 0.00 50 1012.5
20260906170047 94 59 2.0 7.0 0.00 0.00 0.00 51 1012.5
20260906165527 93 360 0.0 7.0 0.00 0.00 0.00 52 1012.7
20260906165029 93 23 3.0 7.0 0.00 0.00 0.00 50 1012.9
20260906164549 94 48 2.0 7.0 0.00 0.00 0.00 51 1013.0
20260906164025 93 31 1.0 5.0 0.00 0.00 0.00 51 1012.9
20260906163525 92 66 1.0 5.0 0.00 0.00 0.00 52 1013.0
20260906163107 93 117 1.0 4.0 0.00 0.00 0.00 51 1013.1
20260906162524 91 0 2.0 3.0 0.00 0.00 0.00 57 1013.1
20260906162024 91 16 1.0 2.0 0.00 0.00 0.00 54 1013.2
20260906161554 91 41 1.0 6.0 0.00 0.00 0.00 53 1013.2
20260906161024 91 81 2.0 6.0 0.00 0.00 0.00 54 1013.2
20260906160524 91 347 2.0 6.0 0.00 0.00 0.00 56 1013.4
20260906160052 90 104 1.0 6.0 0.00 0.00 0.00 56 1013.4
20260906155526 91 341 2.0 6.0 0.00 0.00 0.00 55 1013.4
20260906155025 90 7 1.0 4.0 0.00 0.00 0.00 59 1013.4
20260906154549 90 12 2.0 5.0 0.00 0.00 0.00 56 1013.4
20260906154025 90 83 1.0 6.0 0.00 0.00 0.00 59 1013.4
20260906153525 89 66 1.0 6.0 0.00 0.00 0.00 60 1013.4
20260906153052 89 59 2.0 6.0 0.00 0.00 0.00 59 1013.4
20260906152527 89 42 2.0 6.0 0.00 0.00 0.00 61 1013.3
20260906152024 88 104 1.0 6.0 0.00 0.00 0.00 61 1013.4
20260906151553 88 80 2.0 4.0 0.00 0.00 0.00 60 1013.4
20260906151025 88 31 1.0 5.0 0.00 0.00 0.00 60 1013.4
20260906150526 88 30 1.0 5.0 0.00 0.00 0.00 62 1013.4
20260906150050 88 21 2.0 5.0 0.00 0.00 0.00 61 1013.3
20260906145526 88 33 1.0 5.0 0.00 0.00 0.00 63 1013.4
20260906145025 87 2 1.0 8.0 0.00 0.00 0.00 61 1013.4
20260906144547 87 110 3.0 8.0 0.00 0.00 0.00 63 1013.4
20260906144024 86 359 1.0 5.0 0.00 0.00 0.00 65 1013.4
20260906143525 85 352 0.0 3.0 0.00 0.00 0.00 66 1013.4
20260906143056 85 284 1.0 3.0 0.00 0.00 0.00 68 1013.3
20260906142525 84 78 1.0 2.0 0.00 0.00 0.00 70 1013.3
20260906142029 83 44 0.0 2.0 0.00 0.00 0.00 71 1013.3
20260906141555 82 297 0.0 2.0 0.00 0.00 0.00 73 1013.4
20260906141028 82 0 0.0 2.0 0.00 0.00 0.00 75 1013.5
20260906140529 81 0 0.0 2.0 0.00 0.00 0.00 75 1013.5
20260906140057 81 306 0.0 2.0 0.00 0.00 0.00 75 1013.6
20260906135525 80 29 0.0 2.0 0.00 0.00 0.00 77 1013.6
20260906135026 80 85 0.0 2.0 0.00 0.00 0.00 78 1013.6
20260906134547 79 0 0.0 2.0 0.00 0.00 0.00 79 1013.6
20260906134025 79 31 0.0 2.0 0.00 0.00 0.00 80 1013.6
20260906133523 78 0 0.0 2.0 0.00 0.00 0.00 81 1013.6
20260906133051 78 0 0.0 2.0 0.00 0.00 0.00 81 1013.7
20260906132524 78 71 0.0 2.0 0.00 0.00 0.00 84 1013.8
20260906132024 77 0 1.0 3.0 0.00 0.00 0.00 85 1013.7
20260906131605 77 142 1.0 3.0 0.00 0.00 0.00 86 1013.7
20260906131028 76 102 1.0 3.0 0.00 0.00 0.00 87 1013.7
20260906130528 76 89 1.0 2.0 0.00 0.00 0.00 87 1013.8
20260906130047 76 78 0.0 2.0 0.00 0.00 0.00 87 1013.8
20260906125525 75 0 0.0 2.0 0.00 0.00 0.00 88 1013.7
20260906125024 75 0 0.0 2.0 0.00 0.00 0.00 87 1013.8
20260906124552 75 0 0.0 2.0 0.00 0.00 0.00 88 1013.8
20260906124024 75 92 1.0 2.0 0.00 0.00 0.00 88 1013.6
20260906123524 74 0 0.0 2.0 0.00 0.00 0.00 88 1013.7
20260906123052 74 94 0.0 2.0 0.00 0.00 0.00 88 1013.7
20260906122524 74 0 0.0 2.0 0.00 0.00 0.00 88 1013.7
20260906122025 74 0 0.0 2.0 0.00 0.00 0.00 88 1013.8
20260906121550 74 0 0.0 2.0 0.00 0.00 0.00 88 1013.6
20260906121030 74 96 1.0 2.0 0.00 0.00 0.00 88 1013.5
20260906120530 74 102 0.0 2.0 0.00 0.00 0.00 88 1013.4
20260906120057 74 92 0.0 2.0 0.00 0.00 0.00 88 1013.3
20260906115525 74 92 0.0 1.0 0.00 0.00 0.00 87 1013.1
20260906115024 74 0 0.0 1.0 0.00 0.00 0.00 87 1013.0
20260906114542 74 101 1.0 2.0 0.00 0.00 0.00 87 1013.0
20260906114023 74 69 0.0 2.0 0.00 0.00 0.00 87 1013.1
20260906113525 74 0 0.0 2.0 0.00 0.00 0.00 87 1013.1
20260906113049 74 0 0.0 2.0 0.00 0.00 0.00 87 1013.1
20260906112524 74 308 0.0 3.0 0.00 0.00 0.00 87 1013.0
20260906112025 74 304 2.0 3.0 0.00 0.00 0.00 87 1012.9
20260906111549 74 308 0.0 2.0 0.00 0.00 0.00 87 1012.9
20260906111025 74 283 0.0 2.0 0.00 0.00 0.00 86 1012.6
20260906110525 74 180 0.0 2.0 0.00 0.00 0.00 86 1012.5
20260906110048 75 0 0.0 1.0 0.00 0.00 0.00 86 1012.6
20260906105524 75 0 0.0 1.0 0.00 0.00 0.00 86 1012.6
20260906105025 75 118 0.0 1.0 0.00 0.00 0.00 86 1012.5
20260906104552 75 118 1.0 3.0 0.00 0.00 0.00 86 1012.5
20260906104024 75 102 1.0 3.0 0.00 0.00 0.00 86 1012.5
20260906103523 75 94 1.0 2.0 0.00 0.00 0.00 86 1012.5
20260906103049 75 97 1.0 2.0 0.00 0.00 0.00 85 1012.5
20260906102524 75 96 0.0 2.0 0.00 0.00 0.00 84 1012.4
20260906102028 76 96 1.0 2.0 0.00 0.00 0.00 84 1012.4
20260906101550 76 96 0.0 2.0 0.00 0.00 0.00 84 1012.5
20260906101025 76 121 1.0 2.0 0.00 0.00 0.00 84 1012.4
20260906100527 76 39 0.0 2.0 0.00 0.00 0.00 84 1012.4
20260906100046 76 0 0.0 2.0 0.00 0.00 0.00 83 1012.3
20260906095523 76 0 0.0 2.0 0.00 0.00 0.00 83 1012.3
20260906095024 76 0 0.0 1.0 0.00 0.00 0.00 82 1012.4
20260906094550 76 0 0.0 0.0 0.00 0.00 0.00 82 1012.5
20260906094027 76 0 0.0 0.0 0.00 0.00 0.00 82 1012.6
20260906093524 76 0 0.0 0.0 0.00 0.00 0.00 81 1012.8
20260906093056 76 0 0.0 0.0 0.00 0.00 0.00 81 1012.9
20260906092528 76 0 0.0 0.0 0.00 0.00 0.00 81 1013.0
20260906092025 77 0 0.0 0.0 0.00 0.00 0.00 81 1013.2
20260906091545 77 0 0.0 2.0 0.00 0.00 0.00 81 1013.1
20260906091024 77 0 0.0 2.0 0.00 0.00 0.00 81 1013.1
20260906090527 77 0 0.0 2.0 0.00 0.00 0.00 81 1013.1
20260906090055 77 0 0.0 2.0 0.00 0.00 0.00 81 1013.1
20260906085526 77 297 0.0 1.0 0.00 0.00 0.00 81 1013.2
20260906085024 77 1 1.0 2.0 0.00 0.00 0.00 81 1013.2
20260906084553 77 7 0.0 6.0 0.00 0.00 0.00 81 1013.4
20260906084026 77 67 0.0 6.0 0.00 0.00 0.00 81 1013.2
20260906083523 77 352 1.0 5.0 0.00 0.00 0.00 81 1013.2
20260906083049 77 349 2.0 3.0 0.00 0.00 0.00 81 1013.2
20260906082524 77 4 1.0 2.0 0.00 0.00 0.00 81 1013.2
20260906082024 77 341 0.0 2.0 0.00 0.00 0.00 81 1013.1
20260906081548 77 0 0.0 2.0 0.00 0.00 0.00 81 1012.9
20260906081025 77 0 0.0 2.0 0.00 0.00 0.00 81 1012.9
20260906080525 77 0 0.0 3.0 0.00 0.00 0.00 81 1012.7
20260906080059 77 314 1.0 3.0 0.00 0.00 0.00 81 1012.7
20260906075524 77 331 0.0 3.0 0.00 0.00 0.00 82 1012.7
20260906075026 77 346 1.0 3.0 0.00 0.00 0.00 82 1012.6
20260906074557 77 354 1.0 4.0 0.00 0.00 0.00 82 1012.4
20260906074024 76 353 2.0 6.0 0.00 0.00 0.00 83 1012.3
20260906073524 76 348 2.0 6.0 0.00 0.00 0.00 84 1012.3
20260906073048 76 302 1.0 8.0 0.00 0.00 0.00 85 1012.3
20260906072525 75 302 3.0 8.0 0.00 0.00 0.00 87 1012.4
20260906072028 75 358 2.0 7.0 0.00 0.00 0.00 88 1012.5
20260906071549 74 4 2.0 10.0 0.00 0.00 0.00 88 1012.5
20260906071025 74 354 5.0 10.0 0.00 0.00 0.00 88 1012.7
20260906070525 74 344 5.0 10.0 0.00 0.00 0.00 89 1012.9
20260906070058 74 3 1.0 2.0 0.00 0.00 0.00 89 1012.8
20260906065524 74 348 1.0 2.0 0.00 0.00 0.00 89 1012.7
20260906065024 74 0 0.0 3.0 0.00 0.00 0.00 89 1012.8
20260906064549 74 1 0.0 3.0 0.00 0.00 0.00 89 1012.9
20260906064025 74 1 2.0 3.0 0.00 0.00 0.00 89 1012.9
20260906063524 74 0 0.0 2.0 0.00 0.00 0.00 89 1013.1
20260906063049 73 0 0.0 2.0 0.00 0.00 0.00 89 1013.2
20260906062525 74 0 0.0 2.0 0.00 0.00 0.00 88 1013.3
20260906062025 74 0 0.0 2.0 0.00 0.00 0.00 89 1013.2
20260906061550 74 352 1.0 2.0 0.00 0.00 0.00 89 1013.2
20260906061024 74 344 0.0 2.0 0.00 0.00 0.00 88 1013.2
20260906060529 74 319 0.0 2.0 0.00 0.00 0.00 88 1013.0
20260906060056 74 0 0.0 2.0 0.00 0.00 0.00 88 1012.9
20260906055524 74 114 1.0 2.0 0.00 0.00 0.00 88 1013.0
20260906055025 74 126 1.0 3.0 0.00 0.00 0.00 88 1012.9
20260906054551 74 146 1.0 3.0 0.00 0.00 0.00 88 1012.8
20260906054024 74 121 1.0 3.0 0.00 0.00 0.00 88 1012.9
20260906053525 74 98 1.0 2.0 0.00 0.00 0.00 87 1012.9
20260906053048 74 101 0.0 2.0 0.00 0.00 0.00 87 1012.8
20260906052524 74 356 1.0 2.0 0.00 0.00 0.00 87 1012.7
20260906052025 74 40 0.0 2.0 0.00 0.00 0.00 87 1012.8
20260906051554 74 0 0.0 2.0 0.00 0.00 0.00 87 1012.9
20260906051025 75 0 1.0 2.0 0.00 0.00 0.00 87 1013.0
20260906050525 75 126 0.0 1.0 0.00 0.00 0.00 86 1013.1
20260906050047 75 126 1.0 1.0 0.00 0.00 0.00 86 1013.0
20260906045523 75 0 0.0 0.0 0.00 0.00 0.00 86 1013.3
20260906045023 75 0 0.0 0.0 0.00 0.00 0.00 86 1013.3
20260906044549 75 0 0.0 2.0 0.00 0.00 0.00 86 1013.4
20260906044029 75 0 0.0 2.0 0.00 0.00 0.00 85 1013.4
20260906043526 75 175 0.0 2.0 0.00 0.00 0.00 85 1013.2
20260906043047 75 0 1.0 2.0 0.00 0.00 0.00 86 1013.2
20260906042527 75 117 0.0 2.0 0.00 0.00 0.00 85 1013.2
20260906042025 75 0 0.0 2.0 0.00 0.00 0.00 85 1013.3
20260906041548 75 117 1.0 1.0 0.00 0.00 0.00 85 1013.3
20260906041025 76 101 0.0 2.0 0.00 0.00 0.00 84 1013.4
20260906040524 76 0 0.0 2.0 0.00 0.00 0.00 84 1013.2
20260906040048 76 0 0.0 0.0 0.00 0.00 0.00 84 1013.2
20260906035523 76 0 0.0 1.0 0.00 0.00 0.00 83 1013.2
20260906035024 76 0 0.0 2.0 0.00 0.00 0.00 84 1013.4
20260906034549 76 101 1.0 2.0 0.00 0.00 0.00 83 1013.4
20260906034024 76 101 0.0 2.0 0.00 0.00 0.00 82 1013.5
20260906033524 76 0 0.0 2.0 0.00 0.00 0.00 82 1013.5
20260906033047 77 0 0.0 2.0 0.00 0.00 0.00 82 1013.6
20260906032523 77 0 0.0 2.0 0.00 0.00 0.00 82 1013.5
20260906032024 77 97 1.0 2.0 0.00 0.00 0.00 81 1013.4
20260906031545 77 90 0.0 2.0 0.00 0.00 0.00 80 1013.3
20260906031026 77 0 0.0 2.0 0.00 0.00 0.00 80 1013.2
20260906030524 77 0 0.0 2.0 0.00 0.00 0.00 80 1013.3
20260906030053 77 0 0.0 2.0 0.00 0.00 0.00 80 1013.3
20260906025524 77 0 0.0 2.0 0.00 0.00 0.00 80 1013.3
20260906025025 77 0 0.0 2.0 0.00 0.00 0.00 80 1013.2
20260906024551 77 90 0.0 3.0 0.00 0.00 0.00 80 1013.2
20260906024027 77 171 1.0 3.0 0.00 0.00 0.00 80 1013.0
20260906023525 78 115 1.0 3.0 0.00 0.00 0.00 80 1013.0
20260906023048 78 164 0.0 2.0 0.00 0.00 0.00 80 1013.0
20260906022525 78 125 1.0 2.0 0.00 0.00 0.00 80 1012.9
20260906022032 78 108 0.0 2.0 0.00 0.00 0.00 80 1013.1
20260906021553 78 148 0.0 2.0 0.00 0.00 0.00 80 1013.1
20260906021026 78 120 1.0 2.0 0.00 0.00 0.00 79 1013.0
20260906020524 78 123 0.0 2.0 0.00 0.00 0.00 78 1013.0
20260906020056 78 0 0.0 2.0 0.00 0.00 0.00 78 1012.9
20260906015525 78 0 0.0 0.0 0.00 0.00 0.00 77 1012.9
20260906015024 78 0 0.0 1.0 0.00 0.00 0.00 77 1012.7
20260906014550 79 0 0.0 2.0 0.00 0.00 0.00 77 1012.7
20260906014027 79 121 1.0 2.0 0.00 0.00 0.00 77 1012.6
20260906013525 79 173 1.0 2.0 0.00 0.00 0.00 76 1012.6
20260906013048 79 141 0.0 2.0 0.00 0.00 0.00 75 1012.5
20260906012524 79 0 0.0 0.0 0.00 0.00 0.00 75 1012.3
20260906012026 79 0 0.0 2.0 0.00 0.00 0.00 74 1012.4
20260906011602 80 0 0.0 2.0 0.00 0.00 0.00 74 1012.3
20260906011024 80 7 0.0 2.0 0.00 0.00 0.00 74 1012.2
20260906010524 80 7 0.0 2.0 0.00 0.00 0.00 73 1012.2
20260906010048 80 7 1.0 2.0 0.00 0.00 0.00 74 1012.1
20260906005525 80 350 1.0 2.0 0.00 0.00 0.00 73 1012.1
20260906005029 80 71 0.0 2.0 0.00 0.00 0.00 72 1012.0
20260906004546 80 0 0.0 2.0 0.00 0.00 0.00 71 1012.0
20260906004028 81 104 1.0 2.0 0.00 0.00 0.00 71 1012.0
20260906003526 82 104 1.0 2.0 0.00 0.00 0.00 70 1011.9
20260906003047 82 119 1.0 2.0 0.00 0.00 0.00 69 1011.8
20260906002524 83 0 1.0 2.0 0.00 0.00 0.00 67 1011.8
20260906002027 83 351 1.0 2.0 0.00 0.00 0.00 66 1011.6
20260906001548 83 0 0.0 2.0 0.00 0.00 0.00 66 1011.7
20260906001027 84 104 1.0 2.0 0.00 0.00 0.00 65 1011.7
20260906000532 84 67 0.0 2.0 0.00 0.00 0.00 63 1011.8
20260906000056 85 0 0.0 2.0 0.00 0.00 0.00 63 1011.9
20260905235525 85 5 0.0 4.0 0.00 0.00 0.00 62 1011.9
20260905235024 85 45 1.0 4.0 0.00 0.00 0.00 61 1012.1
20260905234550 85 84 0.0 2.0 0.00 0.00 0.00 60 1012.2
20260905234026 86 0 0.0 3.0 0.00 0.00 0.00 60 1012.2
20260905233524 86 0 0.0 3.0 0.00 0.00 0.00 60 1012.4
20260905233105 86 73 0.0 2.0 0.00 0.00 0.00 59 1012.5
20260905232526 86 18 0.0 2.0 0.00 0.00 0.00 59 1012.5
20260905232025 86 91 0.0 3.0 0.00 0.00 0.00 58 1012.3
20260905231555 87 96 1.0 3.0 0.00 0.00 0.00 58 1012.0
20260905231024 87 96 1.0 4.0 0.00 0.00 0.00 57 1012.0
20260905230533 87 98 2.0 4.0 0.00 0.00 0.00 57 1012.0
20260905230049 88 114 3.0 4.0 0.00 0.00 0.00 57 1012.1
20260905225528 88 63 1.0 3.0 0.00 0.00 0.00 56 1012.0
20260905225027 88 79 0.0 7.0 0.00 0.00 0.00 56 1012.0
20260905224607 89 76 2.0 7.0 0.00 0.00 0.00 56 1011.9
20260905224023 89 27 1.0 5.0 0.00 0.00 0.00 57 1011.9
20260905223527 90 89 1.0 5.0 0.00 0.00 0.00 56 1011.9
20260905223055 90 21 2.0 5.0 0.00 0.00 0.00 56 1011.9
20260905222531 91 32 1.0 4.0 0.00 0.00 0.00 55 1012.0
20260905222031 91 45 1.0 6.0 0.00 0.00 0.00 54 1012.0
20260905221547 92 73 2.0 7.0 0.00 0.00 0.00 53 1012.2
20260905221028 92 334 3.0 7.0 0.00 0.00 0.00 52 1012.3
20260905220525 93 64 1.0 5.0 0.00 0.00 0.00 53 1012.5
20260905220049 93 3 2.0 7.0 0.00 0.00 0.00 51 1012.6
20260905215524 93 11 2.0 7.0 0.00 0.00 0.00 53 1012.7
20260905215031 93 321 2.0 6.0 0.00 0.00 0.00 53 1012.6
20260905214552 93 359 2.0 6.0 0.00 0.00 0.00 53 1012.6
20260905214026 93 122 1.0 6.0 0.00 0.00 0.00 53 1012.7
20260905213525 92 65 1.0 8.0 0.00 0.00 0.00 55 1012.7
20260905213049 92 40 2.0 8.0 0.00 0.00 0.00 54 1012.7
20260905212524 92 352 2.0 7.0 0.00 0.00 0.00 56 1012.7
20260905212031 92 31 2.0 8.0 0.00 0.00 0.00 56 1012.7
20260905211543 91 78 2.0 8.0 0.00 0.00 0.00 55 1012.7
20260905211023 91 56 3.0 8.0 0.00 0.00 0.00 56 1012.7
20260905210523 91 360 1.0 8.0 0.00 0.00 0.00 58 1012.6
20260905210050 90 70 2.0 9.0 0.00 0.00 0.00 57 1012.7